Location: Edgware
(51.6000°N, 0.2667°W)
Time: 05:38:23
(UTC+00:00)

Daily predictions for brighter satellites

Satellite Brightness Start Highest point End
(mag) Time Altitude Azimuth Time Altitude Azimuth Time Altitude Azimuth
SL-16 R/B 4.4 03:19:10 21° ENE 03:19:10 21° ENE 03:21:52 10° E
Cosmos 2082 Rocket 4.4 03:23:08 21° E 03:23:08 21° E 03:26:16 10° NE
USA 234 4.3 03:24:36 10° ENE 03:28:36 40° NE 03:28:36 40° NE
NOSS 3-1 (C) 4.1 03:52:30 67° ENE 03:52:30 67° ENE 04:00:14 10° SE
COSMOS 2455 4.0 04:07:00 35° SE 04:07:00 35° SE 04:10:18 10° SE
Cosmos 2360 Rocket 3.8 04:09:26 27° NNE 04:10:20 28° NE 04:15:09 10° E
Cosmos 2333 Rocket 3.4 04:11:00 37° NNE 04:11:32 38° NE 04:16:52 10° ESE
ATLAS 3B R/B 4.0 04:14:24 33° N 04:15:33 35° N 04:22:34 10° ENE
ACS3 Solar Sail 4.0 04:12:03 10° N 04:12:40 13° N 04:12:40 13° N
NOSS 3-4 (A) 4.3 04:23:04 36° NNE 04:23:04 36° NNE 04:27:09 10° NE
NOSS 3-4 (C) 4.3 04:23:13 36° NNE 04:23:13 36° NNE 04:27:18 10° NE
Cosmos 2219 Rocket 4.0 04:25:49 21° N 04:27:43 25° NE 04:32:22 10° E
ADEOS Rocket 4.3 04:22:36 10° N 04:27:21 36° NNW 04:27:21 36° NNW
COSMO-SKYMED 1 4.1 04:29:02 10° SE 04:32:40 31° ENE 04:32:40 31° ENE
Cosmos 2322 Rocket 3.3 04:32:25 33° NNE 04:34:02 40° NE 04:39:22 10° ESE
Cosmos 1937 Rocket 3.8 04:49:25 54° SSE 04:49:25 54° SSE 04:53:21 10° SSE
Cosmos 858 Rocket 4.5 04:49:23 76° NE 04:49:28 76° ENE 04:54:39 10° SSE
USA 59 Rocket 2.1 04:54:18 18° S 04:54:18 18° S 04:55:47 10° SSE
Cosmos 2237 4.3 04:53:25 58° SSW 04:53:25 58° SSW 04:58:12 10° SSE
Aureole 1 Rocket 4.4 04:53:29 53° SW 04:53:29 53° SW 05:00:04 10° S
Cosmos 1833 Rocket 4.2 04:55:09 23° N 04:55:09 23° N 04:57:49 10° NNE
Meteor 2-3 Rocket 4.4 04:49:07 10° S 04:54:41 55° E 05:00:13 10° NNE
Cosmos 2058 Rocket 4.2 04:54:41 26° NNE 04:56:44 43° ENE 05:00:56 10° SE
NOSS 3-1 (A) 3.9 04:57:15 45° NW 04:59:51 82° NE 05:08:29 10° SE
COSMOS 2406 3.6 04:55:16 15° SSW 05:00:00 63° ESE 05:05:37 10° NE
SKYMED 2 3.8 04:56:33 10° SSE 05:00:15 63° SE 05:00:15 63° SE
SL-16 R/B 2.1 05:01:02 59° NNW 05:02:12 88° ENE 05:07:53 10° SSE
Cosmos 2082 Rocket 2.0 05:05:01 68° W 05:05:30 73° WNW 05:11:09 10° NNE
CZ-4 R/B 4.4 05:02:13 10° NNE 05:06:48 56° ESE 05:11:20 10° S
ATLAS 5 CENTAUR R/B 3.6 05:10:38 13° NNE 05:10:38 13° NNE 05:11:15 10° NNE
SeaSat 1 3.7 05:04:48 10° NNE 05:07:30 28° N 05:07:30 28° N
BREEZE-M DEB (TANK) 4.5 05:12:02 32° SE 05:12:02 32° SE 05:13:35 10° E
Okean 1 4.2 05:11:24 37° NE 05:12:06 41° ENE 05:15:29 10° SSE
USA 234 3.5 05:07:30 10° ENE 05:13:53 56° N 05:15:57 41° NW
CZ-2C R/B 4.1 05:11:23 10° N 05:13:16 21° N 05:13:16 21° N
Helios 1A Rocket 3.4 05:13:31 10° SSE 05:15:55 43° SE 05:15:55 43° SE
NOAA 12 4.3 05:11:52 10° NNE 05:17:11 72° ESE 05:22:25 10° S
Cosmos 2285 Rocket 4.4 05:17:03 17° NNW 05:22:06 62° ENE 05:28:26 10° SE
BREEZE-M DEB (TANK) 3.2 05:23:26 48° SE 05:23:26 48° SE 05:26:55 10° E
BREEZE-M DEB (TANK) 3.2 05:24:35 33° S 05:24:46 34° S 05:29:24 10° ESE
Cosmos 2278 3.6 05:24:16 41° NW 05:26:16 73° WSW 05:31:52 10° SSE
SL-4 R/B 2.0 05:28:33 54° SE 05:28:33 54° SE 05:31:10 10° ESE
FengYun 1-2 T 4.2 05:24:04 10° N 05:29:40 64° WNW 05:35:15 10° SSW
Celestis-02/Orion 38 4.5 05:26:09 10° NNE 05:31:09 60° NW 05:32:53 39° WSW
Cosmos 2221 4.3 05:30:39 10° N 05:34:19 30° ENE 05:37:59 10° SE
Cosmos 2026 Rocket 3.9 05:28:33 10° S 05:34:36 90° W 05:40:46 10° N
Cosmos 1726 Rocket 4.5 05:38:10 30° SW 05:38:10 30° SW 05:40:40 10° SSW
SL-16 R/B 4.4 05:38:49 10° N 05:40:56 12° NNE 05:43:02 10° NE
NOSS 3-1 (C) 4.5 05:39:51 31° W 05:42:33 41° WSW 05:50:34 10° S
SJ-11-01 4.5 05:38:17 10° N 05:42:48 46° WNW 05:45:29 22° SW
Cosmos 841 Rocket 3.6 05:40:31 27° SW 05:43:13 53° WNW 05:48:24 10° NNE
Cosmos 405 Rocket 4.0 05:40:28 10° SSE 05:43:27 34° E 05:46:28 10° NNE
COSMOS 2455 4.1 05:50:11 21° WSW 05:50:11 21° WSW 05:53:52 10° SSW
Cosmos 2360 Rocket 2.1 05:51:12 22° NW 05:54:52 74° WSW 06:00:28 10° SSE
Cosmos 2333 Rocket 2.4 05:53:03 26° NW 05:56:03 52° WSW 06:01:35 10° S
Cosmos 1626 Rocket 4.0 05:52:23 10° S 05:56:45 63° E 06:01:06 10° NNE
Cosmos 1553 Rocket 4.0 05:50:29 10° N 05:56:54 89° ENE 06:03:21 10° S
Cosmos 1892 Rocket 3.8 05:57:16 10° SSW 06:01:27 44° WNW 06:05:42 10° N
Cosmos 1092 Rocket 3.9 05:55:17 10° SSW 06:01:32 68° WNW 06:07:46 10° N
Meteor 2-2 Rocket 4.3 05:57:03 10° NNW 06:02:38 56° W 06:08:15 10° S
Cosmos-2242 3.1 06:00:27 24° NNW 06:02:42 48° W 06:06:44 10° SSW
Nadezhda 4 Rocket 4.5 05:58:43 10° SW 06:04:29 37° WNW 06:10:15 10° N
Cosmos 2237 Rocket 4.0 06:00:37 10° NNW 06:05:06 24° NE 06:09:35 10° E
Cosmos 1125 Rocket 3.9 06:01:41 11° NNW 06:06:51 63° ENE 06:12:01 10° SE
COSMO-SKYMED 1 3.1 06:04:13 10° SSW 06:07:56 32° W 06:08:59 28° WNW
ATLAS 3B R/B 3.5 06:01:38 16° NW 06:07:57 57° NE 06:15:27 10° ESE
IRS-1D 3.9 06:07:44 10° N 06:12:22 40° WNW 06:17:04 10° SW
Cosmos 2219 Rocket 2.2 06:07:32 15° NNW 06:12:23 86° WSW 06:18:01 10° SSE
Cosmos 2322 Rocket 2.5 06:14:14 18° NW 06:18:11 46° WSW 06:23:33 10° S
BREEZE-M DEB (TANK) 4.4 05:58:40 10° WSW 06:19:42 78° S 06:24:29 10° E
Meteor 2-6 Rocket 4.3 06:18:50 10° NNW 06:24:45 65° W 06:30:37 10° S
Cosmos 1812 Rocket 3.5 06:22:18 10° N 06:26:39 89° WSW 06:30:59 10° S
IGS 5A 3.3 06:23:09 10° N 06:27:08 65° WNW 06:31:05 10° SSW
Cosmos 2322 4.2 06:21:49 10° NNW 06:27:26 59° NE 06:33:01 10° SE
Cosmos 1484 Rocket 2.6 06:25:03 10° N 06:28:23 47° WNW 06:31:38 10° SW
Cosmos 1437 Rocket 2.4 06:29:20 10° NNW 06:32:49 85° ENE 06:36:16 10° SSE
Cosmos 192 4.3 06:28:02 10° NNW 06:32:57 73° WSW 06:37:49 10° SSE
Cosmos 2266 Rocket 4.3 06:26:38 10° S 06:32:59 73° E 06:39:17 10° NNE
Cosmos 2058 Rocket 4.2 06:31:52 15° NW 06:34:21 24° W 06:37:54 10° SW
Cosmos 1417 Rocket 4.4 06:28:39 10° N 06:34:50 85° W 06:40:59 10° S
Cosmos 1602 Rocket 3.7 06:30:47 10° S 06:35:13 82° E 06:39:42 10° NNE
ATLAS 2AS CENTAUR R/B 3.6 06:29:05 10° SSW 06:35:53 54° SE 06:42:32 10° NE
Meteor 2-3 Rocket 4.5 06:33:16 10° WSW 06:38:12 29° WNW 06:43:08 10° N
SL-08 ROCKET BODY 4.3 06:33:51 10° SSW 06:39:40 68° WNW 06:45:31 10° N
ARIANE 5 R/B 3.1 06:35:26 10° NNE 06:40:38 64° ESE 06:45:49 10° S
Cosmos 1743 2.2 06:37:29 10° SSW 06:40:43 66° WNW 06:43:58 10° N
COSMOS 2406 3.9 06:39:39 10° WSW 06:44:41 32° NW 06:49:46 10° NNE
SL-16 R/B 3.6 06:42:55 14° WNW 06:45:31 18° W 06:49:15 10° SW
SeaSat 1 4.3 06:43:28 10° N 06:45:34 13° NNW 06:47:07 11° NW
COSMOS 2428 2.9 06:44:03 10° NNW 06:49:47 73° ENE 06:55:28 10° SE
Cosmos 2082 Rocket 3.4 06:46:54 12° WNW 06:50:34 21° NW 06:54:46 10° NNE
ATLAS 5 CENTAUR R/B 3.2 06:50:12 10° NNW 06:52:08 14° N 06:54:14 10° NE
USA 234 3.4 06:50:02 10° E 06:56:33 70° NNE 07:03:05 10° WNW
MOS 1 Rocket 3.7 06:53:04 10° NNE 06:58:29 86° E 07:03:48 10° SSW
Cosmos 1814 Rocket 4.2 06:53:33 10° SW 06:58:38 49° WNW 07:03:48 10° NNE
CBERS-1 4.2 06:55:14 10° N 07:00:08 48° WNW 07:05:00 10° SW
Meteor 1-27 Rocket 3.8 06:58:00 10° NNW 07:03:56 88° W 07:09:41 10° S
SAR-Lupe-4 3.5 07:00:56 10° N 07:04:29 68° WNW 07:08:00 10° SSW
SL-4 R/B 3.1 07:02:39 10° W 07:05:12 22° SW 07:07:42 10° SSE
CZ-2D R/B 2.9 07:03:35 10° N 07:06:41 51° WNW 07:09:46 10° SSW
Cosmos 2151 3.1 07:04:44 10° SSW 07:08:42 48° WNW 07:12:42 10° N
Cosmos 1825 Rocket 3.6 07:04:26 10° S 07:08:52 90° SE 07:13:18 10° N
Cosmos 2221 3.2 07:07:43 10° NNW 07:11:23 31° W 07:15:01 10° SSW
Cosmos 1758 Rocket 4.3 07:07:39 10° SW 07:11:36 31° WNW 07:15:34 10° N
CORIOLIS 4.2 07:08:02 10° N 07:13:19 57° WNW 07:18:34 10° SW
SAR-Lupe-1 4.1 07:10:32 10° N 07:14:07 62° WNW 07:17:40 10° SSW
USA 229 4.1 07:08:14 10° NW 07:15:34 82° SW 07:23:41 10° SE
USA 229 DEB 4.1 07:08:19 10° NW 07:15:39 82° SW 07:23:46 10° SE
Cosmos 405 Rocket 3.8 07:14:47 10° WSW 07:17:08 18° WNW 07:19:29 10° NNW
Cosmos 1238 Rocket 2.3 07:15:00 10° NNW 07:17:45 44° W 07:20:29 10° S
Meteor 1-20 Rocket 4.2 07:12:22 10° SSW 07:17:58 68° WNW 07:23:32 10° N
Cosmos 1707 3.2 07:15:29 10° NNW 07:18:14 28° W 07:20:58 10° SSW
COBE Rocket 4.1 07:13:43 10° SSE 07:18:17 70° ENE 07:22:55 10° N
Thor Agena Rocket 3.7 07:13:39 10° N 07:18:30 47° WNW 07:23:18 10° SW
Cosmos 2315 Rocket 4.2 07:17:31 10° NNW 07:23:46 59° W 07:29:56 10° S
